• In Czech Republic
  • List of Countries
  • For 7 days
  • Water Temperature
  • Satellite Maps
  • Weather Map
  • Weather Widgets
  • user-avatar
    Login

    Hourly Weather Annaba

    Today, 22 July, Saturday

    Time Temperature Precipitation Wind Pressure Humidity
    00:00 +29°C° 0 mm 2 mps 758 mmHg 71%
    01:00 +28°C° 0 mm 2 mps 758 mmHg 74%
    02:00 +28°C° 0 mm 2 mps 758 mmHg 74%
    03:00 +28°C° 0 mm 2 mps 758 mmHg 73%
    04:00 +28°C° 0 mm 1 mps 758 mmHg 73%
    05:00 +29°C° 0 mm 1 mps 758 mmHg 68%
    06:00 +30°C° 0 mm 1 mps 758 mmHg 63%
    07:00 +31°C° 0 mm 1 mps 758 mmHg 58%
    08:00 +33°C° 0 mm 1 mps 759 mmHg 53%
    09:00 +35°C° 0 mm 2 mps 759 mmHg 47%
    10:00 +37°C° 0 mm 2 mps 759 mmHg 42%
    11:00 +38°C° 0 mm 3 mps 759 mmHg 41%
    12:00 +38°C° 0 mm 3 mps 759 mmHg 40%
    13:00 +39°C° 0 mm 3 mps 759 mmHg 40%
    14:00 +39°C° 0 mm 3 mps 759 mmHg 40%
    15:00 +39°C° 0 mm 3 mps 759 mmHg 40%
    16:00 +39°C° 0 mm 3 mps 759 mmHg 40%
    17:00 +38°C° 0 mm 3 mps 759 mmHg 43%
    18:00 +37°C° 0 mm 3 mps 759 mmHg 47%
    19:00 +36°C° 0 mm 3 mps 759 mmHg 50%
    20:00 +34°C° 0 mm 2 mps 759 mmHg 55%
    21:00 +32°C° 0 mm 2 mps 760 mmHg 59%
    22:00 +31°C° 0 mm 2 mps 760 mmHg 64%
    23:00 +32°C° 0 mm 2 mps 760 mmHg 59%

    Tomorrow, 23 July, Sunday

    Time Temperature Precipitation Wind Pressure Humidity
    00:00 +32°C° 0 mm 2 mps 760 mmHg 55%
    01:00 +34°C° 0 mm 2 mps 760 mmHg 51%
    02:00 +34°C° 0 mm 2 mps 760 mmHg 50%
    03:00 +32°C° 0 mm 2 mps 760 mmHg 49%
    04:00 +32°C° 0 mm 2 mps 760 mmHg 48%
    05:00 +34°C° 0 mm 2 mps 760 mmHg 46%
    06:00 +35°C° 0 mm 2 mps 760 mmHg 44%
    07:00 +35°C° 0 mm 2 mps 760 mmHg 42%
    08:00 +37°C° 0 mm 3 mps 760 mmHg 39%
    09:00 +39°C° 0 mm 3 mps 760 mmHg 37%
    10:00 +40°C° 0 mm 3 mps 761 mmHg 34%
    11:00 +42°C° 0 mm 3 mps 760 mmHg 32%
    12:00 +43°C° 0 mm 3 mps 760 mmHg 30%
    13:00 +44°C° 0 mm 3 mps 760 mmHg 28%
    14:00 +44°C° 0 mm 3 mps 760 mmHg 29%
    15:00 +44°C° 0 mm 3 mps 760 mmHg 29%
    16:00 +44°C° 0 mm 4 mps 760 mmHg 29%
    17:00 +42°C° 0 mm 3 mps 760 mmHg 33%
    18:00 +39°C° 0 mm 3 mps 760 mmHg 36%
    19:00 +37°C° 0 mm 2 mps 759 mmHg 40%
    20:00 +36°C° 0 mm 3 mps 760 mmHg 42%
    21:00 +36°C° 0 mm 4 mps 760 mmHg 43%
    22:00 +35°C° 0 mm 4 mps 761 mmHg 45%
    23:00 +34°C° 0.3 mm 5 mps 760 mmHg 45%

    Day after tomorrow, 24 July, Monday

    Time Temperature Precipitation Wind Pressure Humidity
    00:00 +34°C° 0.3 mm 5 mps 760 mmHg 45%
    01:00 +33°C° 0.3 mm 5 mps 759 mmHg 45%
    02:00 +33°C° 0.1 mm 5 mps 759 mmHg 44%
    03:00 +33°C° 0.1 mm 5 mps 758 mmHg 43%
    04:00 +33°C° 0.1 mm 6 mps 758 mmHg 42%
    05:00 +34°C° 0.1 mm 6 mps 758 mmHg 43%
    06:00 +34°C° 0.1 mm 6 mps 758 mmHg 44%
    07:00 +34°C° 0.1 mm 6 mps 758 mmHg 45%
    08:00 +35°C° 0 mm 6 mps 758 mmHg 44%
    09:00 +36°C° 0 mm 7 mps 758 mmHg 43%
    10:00 +38°C° 0 mm 7 mps 758 mmHg 42%
    11:00 +38°C° 0 mm 7 mps 758 mmHg 43%
    12:00 +38°C° 0 mm 7 mps 758 mmHg 45%
    13:00 +38°C° 0 mm 7 mps 758 mmHg 46%
    14:00 +36°C° 0 mm 6 mps 758 mmHg 48%
    15:00 +35°C° 0 mm 6 mps 758 mmHg 50%
    16:00 +35°C° 0 mm 6 mps 758 mmHg 52%
    17:00 +33°C° 0.1 mm 5 mps 758 mmHg 57%
    18:00 +32°C° 0.1 mm 4 mps 758 mmHg 61%
    19:00 +30°C° 0.1 mm 4 mps 758 mmHg 66%
    20:00 +29°C° 0 mm 3 mps 759 mmHg 71%
    21:00 +28°C° 0 mm 3 mps 759 mmHg 76%
    22:00 +27°C° 0 mm 2 mps 760 mmHg 81%
    23:00 +26°C° 0 mm 2 mps 760 mmHg 83%

    25 July, Tuesday

    Time Temperature Precipitation Wind Pressure Humidity
    00:00 +26°C° 0 mm 2 mps 759 mmHg 86%
    01:00 +25°C° 0 mm 2 mps 759 mmHg 89%
    02:00 +25°C° 0 mm 2 mps 759 mmHg 89%
    03:00 +25°C° 0 mm 3 mps 759 mmHg 89%
    04:00 +25°C° 0 mm 3 mps 758 mmHg 89%
    05:00 +25°C° 0 mm 3 mps 758 mmHg 86%
    06:00 +25°C° 0 mm 3 mps 758 mmHg 82%
    07:00 +26°C° 0 mm 3 mps 759 mmHg 79%
    08:00 +27°C° 0 mm 3 mps 759 mmHg 72%
    09:00 +28°C° 0 mm 3 mps 759 mmHg 66%
    10:00 +29°C° 0 mm 3 mps 759 mmHg 60%
    11:00 +30°C° 0 mm 4 mps 758 mmHg 55%
    12:00 +32°C° 0 mm 4 mps 758 mmHg 50%
    13:00 +33°C° 0 mm 5 mps 758 mmHg 45%
    14:00 +33°C° 0 mm 5 mps 758 mmHg 45%
    15:00 +33°C° 0 mm 5 mps 758 mmHg 46%
    16:00 +33°C° 0 mm 5 mps 757 mmHg 47%
    17:00 +32°C° 0 mm 4 mps 758 mmHg 50%
    18:00 +30°C° 0 mm 4 mps 758 mmHg 54%
    19:00 +29°C° 0 mm 3 mps 758 mmHg 57%
    20:00 +28°C° 0 mm 3 mps 758 mmHg 62%
    21:00 +27°C° 0 mm 2 mps 758 mmHg 67%
    22:00 +26°C° 0 mm 2 mps 759 mmHg 72%
    23:00 +25°C° 0 mm 2 mps 758 mmHg 73%

    26 July, Wednesday

    Time Temperature Precipitation Wind Pressure Humidity
    00:00 +25°C° 0 mm 2 mps 758 mmHg 75%
    01:00 +25°C° 0 mm 1 mps 758 mmHg 76%
    02:00 +24°C° 0 mm 1 mps 758 mmHg 77%
    03:00 +24°C° 0 mm 2 mps 758 mmHg 79%
    04:00 +24°C° 0 mm 2 mps 758 mmHg 80%
    05:00 +24°C° 0 mm 2 mps 758 mmHg 77%
    06:00 +25°C° 0 mm 2 mps 758 mmHg 74%
    07:00 +25°C° 0 mm 2 mps 759 mmHg 72%
    08:00 +27°C° 0 mm 2 mps 759 mmHg 63%
    09:00 +29°C° 0 mm 2 mps 759 mmHg 55%
    10:00 +31°C° 0 mm 2 mps 759 mmHg 46%
    11:00 +33°C° 0 mm 3 mps 759 mmHg 44%
    12:00 +34°C° 0 mm 3 mps 758 mmHg 42%
    13:00 +35°C° 0 mm 4 mps 758 mmHg 40%
    14:00 +34°C° 0 mm 4 mps 758 mmHg 41%
    15:00 +34°C° 0 mm 4 mps 758 mmHg 43%
    16:00 +34°C° 0 mm 4 mps 758 mmHg 45%
    17:00 +33°C° 0 mm 4 mps 758 mmHg 49%
    18:00 +30°C° 0 mm 4 mps 758 mmHg 54%
    19:00 +29°C° 0 mm 3 mps 758 mmHg 58%
    20:00 +28°C° 0 mm 3 mps 758 mmHg 63%
    21:00 +27°C° 0 mm 2 mps 759 mmHg 68%
    22:00 +26°C° 0 mm 1 mps 759 mmHg 73%
    23:00 +26°C° 0 mm 1 mps 759 mmHg 73%

    27 July, Thursday

    Time Temperature Precipitation Wind Pressure Humidity
    00:00 +26°C° 0 mm 1 mps 759 mmHg 73%
    01:00 +25°C° 0 mm 1 mps 758 mmHg 74%
    02:00 +25°C° 0 mm 1 mps 758 mmHg 74%
    03:00 +25°C° 0 mm 1 mps 758 mmHg 75%
    04:00 +25°C° 0 mm 1 mps 758 mmHg 75%
    05:00 +25°C° 0 mm 2 mps 758 mmHg 73%
    06:00 +26°C° 0 mm 2 mps 759 mmHg 70%
    07:00 +26°C° 0 mm 2 mps 759 mmHg 68%
    08:00 +28°C° 0 mm 2 mps 759 mmHg 60%
    09:00 +30°C° 0 mm 2 mps 759 mmHg 53%
    10:00 +32°C° 0 mm 2 mps 759 mmHg 46%
    11:00 +34°C° 0 mm 3 mps 759 mmHg 42%
    12:00 +35°C° 0 mm 3 mps 759 mmHg 39%
    13:00 +36°C° 0 mm 4 mps 759 mmHg 35%
    14:00 +36°C° 0 mm 4 mps 759 mmHg 36%
    15:00 +36°C° 0 mm 4 mps 759 mmHg 36%
    16:00 +35°C° 0 mm 4 mps 759 mmHg 36%
    17:00 +34°C° 0 mm 4 mps 759 mmHg 40%
    18:00 +33°C° 0 mm 3 mps 759 mmHg 44%
    19:00 +30°C° 0 mm 2 mps 760 mmHg 48%
    20:00 +29°C° 0 mm 2 mps 760 mmHg 54%
    21:00 +28°C° 0 mm 1 mps 761 mmHg 60%
    22:00 +26°C° 0 mm 1 mps 761 mmHg 66%
    23:00 +26°C° 0 mm 1 mps 761 mmHg 66%
    Show more